owner,sensor,date,latitude,longitude,vertical_datum,wind_speed,wind_to_direction,wind_speed_of_gust,qcFlag 
TCOON,ioos:station:TCOON:013:1,2015-05-01T00:18:00Z,27.4847,-97.3181,0.0,4.5,152.0,5.1,'1111122,1111122,1111122' 
TCOON,ioos:station:TCOON:013:1,2015-05-01T01:18:00Z,27.4847,-97.3181,0.0,2.8,142.0,3.4,'1111122,1111122,1111122' 
TCOON,ioos:station:TCOON:013:1,2015-05-01T02:12:00Z,27.4847,-97.3181,0.0,2.8,127.0,3.6,'1111122,1111122,1111122' 
TCOON,ioos:station:TCOON:013:1,2015-05-01T03:12:00Z,27.4847,-97.3181,0.0,2.8,132.0,3.3,'1111122,1111122,1111122' 
TCOON,ioos:station:TCOON:013:1,2015-05-01T04:18:00Z,27.4847,-97.3181,0.0,2.3,123.0,3.1,'1111122,1111122,1111122' 
TCOON,ioos:station:TCOON:013:1,2015-05-01T05:18:00Z,27.4847,-97.3181,0.0,2.4,132.0,3.1,'1111122,1111122,1111122' 
TCOON,ioos:station:TCOON:013:1,2015-05-01T06:18:00Z,27.4847,-97.3181,0.0,2.7,116.0,3.2,'1111122,1111122,1111122' 
TCOON,ioos:station:TCOON:013:1,2015-05-01T07:12:00Z,27.4847,-97.3181,0.0,3.3,127.0,3.8,'1111122,1111122,1111122' 
TCOON,ioos:station:TCOON:013:1,2015-05-01T08:18:00Z,27.4847,-97.3181,0.0,3.5,154.0,4.0,'1111122,1111122,1111122' 
TCOON,ioos:station:TCOON:013:1,2015-05-01T09:18:00Z,27.4847,-97.3181,0.0,3.2,158.0,3.8,'1111122,1111122,1111122' 
TCOON,ioos:station:TCOON:013:1,2015-05-01T10:12:00Z,27.4847,-97.3181,0.0,1.8,169.0,2.0,'1111122,1111122,1111122' 
TCOON,ioos:station:TCOON:013:1,2015-05-01T11:18:00Z,27.4847,-97.3181,0.0,2.3,163.0,2.6,'1111122,1111122,1111122' 
TCOON,ioos:station:TCOON:013:1,2015-05-01T12:12:00Z,27.4847,-97.3181,0.0,1.9,260.0,2.1,'1111122,1111122,1111122' 
TCOON,ioos:station:TCOON:013:1,2015-05-01T14:18:00Z,27.4847,-97.3181,0.0,1.7,233.0,2.0,'1111122,1111122,1111122' 
TCOON,ioos:station:TCOON:013:1,2015-05-01T15:18:00Z,27.4847,-97.3181,0.0,1.4,245.0,1.8,'1111122,1111122,1111122' 
TCOON,ioos:station:TCOON:013:1,2015-05-01T16:18:00Z,27.4847,-97.3181,0.0,2.6,128.0,3.3,'1111122,1111122,1111122' 
TCOON,ioos:station:TCOON:013:1,2015-05-01T17:24:00Z,27.4847,-97.3181,0.0,2.4,94.0,4.0,'1111122,1111122,1111122' 
TCOON,ioos:station:TCOON:013:1,2015-05-01T18:18:00Z,27.4847,-97.3181,0.0,3.0,133.0,4.5,'1111122,1111122,1111122' 
TCOON,ioos:station:TCOON:013:1,2015-05-01T19:18:00Z,27.4847,-97.3181,0.0,2.9,120.0,5.6,'1111122,1111122,1111122' 
TCOON,ioos:station:TCOON:013:1,2015-05-01T20:18:00Z,27.4847,-97.3181,0.0,1.6,98.0,4.4,'1111122,1111122,1111122' 
TCOON,ioos:station:TCOON:013:1,2015-05-01T21:18:00Z,27.4847,-97.3181,0.0,2.5,105.0,4.2,'1111122,1111122,1111122' 
TCOON,ioos:station:TCOON:013:1,2015-05-01T22:18:00Z,27.4847,-97.3181,0.0,3.5,81.0,4.4,'1111122,1111122,1111122' 
TCOON,ioos:station:TCOON:013:1,2015-05-01T23:18:00Z,27.4847,-97.3181,0.0,3.2,91.0,4.8,'1111122,1111122,1111122' 
TCOON,ioos:station:TCOON:013:1,2015-05-02T00:12:00Z,27.4847,-97.3181,0.0,3.5,103.0,4.9,'1111122,1111122,1111122' 
TCOON,ioos:station:TCOON:013:1,2015-05-02T01:18:00Z,27.4847,-97.3181,0.0,2.5,96.0,4.0,'1111122,1111122,1111122' 
TCOON,ioos:station:TCOON:013:1,2015-05-02T02:12:00Z,27.4847,-97.3181,0.0,3.1,108.0,3.8,'1111122,1111122,1111122' 
TCOON,ioos:station:TCOON:013:1,2015-05-02T03:12:00Z,27.4847,-97.3181,0.0,3.1,128.0,4.4,'1111122,1111122,1111122' 
TCOON,ioos:station:TCOON:013:1,2015-05-02T04:18:00Z,27.4847,-97.3181,0.0,3.1,130.0,4.1,'1111122,1111122,1111122' 
TCOON,ioos:station:TCOON:013:1,2015-05-02T05:18:00Z,27.4847,-97.3181,0.0,3.6,128.0,4.1,'1111122,1111122,1111122' 
TCOON,ioos:station:TCOON:013:1,2015-05-02T06:18:00Z,27.4847,-97.3181,0.0,3.3,137.0,4.0,'1111122,1111122,1111122' 
TCOON,ioos:station:TCOON:013:1,2015-05-02T07:18:00Z,27.4847,-97.3181,0.0,2.9,158.0,3.5,'1111122,1111122,1111122' 
TCOON,ioos:station:TCOON:013:1,2015-05-02T08:18:00Z,27.4847,-97.3181,0.0,3.2,172.0,3.8,'1111122,1111122,1111122' 
TCOON,ioos:station:TCOON:013:1,2015-05-02T09:12:00Z,27.4847,-97.3181,0.0,3.0,176.0,3.7,'1111122,1111122,1111122' 
TCOON,ioos:station:TCOON:013:1,2015-05-02T10:18:00Z,27.4847,-97.3181,0.0,1.6,243.0,2.6,'1111122,1111122,1111122' 
TCOON,ioos:station:TCOON:013:1,2015-05-02T11:18:00Z,27.4847,-97.3181,0.0,1.1,243.0,1.2,'1111122,1111122,1111122' 
TCOON,ioos:station:TCOON:013:1,2015-05-02T12:18:00Z,27.4847,-97.3181,0.0,0.6,296.0,1.2,'1111122,1111122,1111122' 
TCOON,ioos:station:TCOON:013:1,2015-05-02T13:12:00Z,27.4847,-97.3181,0.0,1.1,38.0,1.3,'1111122,1111122,1111122' 
TCOON,ioos:station:TCOON:013:1,2015-05-02T14:18:00Z,27.4847,-97.3181,0.0,2.3,104.0,3.3,'1111122,1111122,1111122' 
TCOON,ioos:station:TCOON:013:1,2015-05-02T15:12:00Z,27.4847,-97.3181,0.0,2.1,171.0,3.6,'1111122,1111122,1111122' 
TCOON,ioos:station:TCOON:013:1,2015-05-02T16:18:00Z,27.4847,-97.3181,0.0,4.7,146.0,5.5,'1111122,1111122,1111122' 
TCOON,ioos:station:TCOON:013:1,2015-05-02T17:18:00Z,27.4847,-97.3181,0.0,3.9,126.0,5.5,'1111122,1111122,1111122' 
TCOON,ioos:station:TCOON:013:1,2015-05-02T18:18:00Z,27.4847,-97.3181,0.0,4.4,106.0,6.1,'1111122,1111122,1111122' 
TCOON,ioos:station:TCOON:013:1,2015-05-02T19:18:00Z,27.4847,-97.3181,0.0,4.5,121.0,6.2,'1111122,1111122,1111122' 
TCOON,ioos:station:TCOON:013:1,2015-05-02T20:18:00Z,27.4847,-97.3181,0.0,5.2,116.0,7.0,'1111122,1111122,1111122' 
TCOON,ioos:station:TCOON:013:1,2015-05-02T21:18:00Z,27.4847,-97.3181,0.0,6.1,110.0,7.6,'1111122,1111122,1111122' 
TCOON,ioos:station:TCOON:013:1,2015-05-02T22:18:00Z,27.4847,-97.3181,0.0,6.9,110.0,9.2,'1111122,1111122,1111122' 
TCOON,ioos:station:TCOON:013:1,2015-05-02T23:18:00Z,27.4847,-97.3181,0.0,7.6,108.0,8.8,'1111122,1111122,1111122' 
TCOON,ioos:station:TCOON:013:1,2015-05-03T00:12:00Z,27.4847,-97.3181,0.0,6.6,117.0,8.5,'1111122,1111122,1111122' 
TCOON,ioos:station:TCOON:013:1,2015-05-03T01:12:00Z,27.4847,-97.3181,0.0,6.0,117.0,7.3,'1111122,1111122,1111122' 
TCOON,ioos:station:TCOON:013:1,2015-05-03T02:18:00Z,27.4847,-97.3181,0.0,4.6,122.0,6.5,'1111122,1111122,1111122' 
TCOON,ioos:station:TCOON:013:1,2015-05-03T03:18:00Z,27.4847,-97.3181,0.0,5.9,126.0,7.3,'1111122,1111122,1111122' 
TCOON,ioos:station:TCOON:013:1,2015-05-03T04:18:00Z,27.4847,-97.3181,0.0,6.5,135.0,7.9,'1111122,1111122,1111122' 
TCOON,ioos:station:TCOON:013:1,2015-05-03T05:18:00Z,27.4847,-97.3181,0.0,7.0,139.0,8.2,'1111122,1111122,1111122' 
TCOON,ioos:station:TCOON:013:1,2015-05-03T07:06:00Z,27.4847,-97.3181,0.0,6.0,134.0,7.5,'1111122,1111122,1111122' 
TCOON,ioos:station:TCOON:013:1,2015-05-03T08:18:00Z,27.4847,-97.3181,0.0,5.4,136.0,7.0,'1111122,1111122,1111122' 
TCOON,ioos:station:TCOON:013:1,2015-05-03T09:18:00Z,27.4847,-97.3181,0.0,4.9,133.0,6.6,'1111122,1111122,1111122' 
TCOON,ioos:station:TCOON:013:1,2015-05-03T10:12:00Z,27.4847,-97.3181,0.0,4.7,132.0,6.5,'1111122,1111122,1111122' 
TCOON,ioos:station:TCOON:013:1,2015-05-03T11:12:00Z,27.4847,-97.3181,0.0,4.9,125.0,6.1,'1111122,1111122,1111122' 
TCOON,ioos:station:TCOON:013:1,2015-05-03T12:12:00Z,27.4847,-97.3181,0.0,4.6,127.0,5.6,'1111122,1111122,1111122' 
TCOON,ioos:station:TCOON:013:1,2015-05-03T13:18:00Z,27.4847,-97.3181,0.0,5.4,123.0,6.9,'1111122,1111122,1111122' 
TCOON,ioos:station:TCOON:013:1,2015-05-03T14:18:00Z,27.4847,-97.3181,0.0,6.7,134.0,7.9,'1111122,1111122,1111122' 
TCOON,ioos:station:TCOON:013:1,2015-05-03T15:18:00Z,27.4847,-97.3181,0.0,7.5,122.0,8.8,'1111122,1111122,1111122' 
TCOON,ioos:station:TCOON:013:1,2015-05-03T16:18:00Z,27.4847,-97.3181,0.0,7.3,128.0,9.5,'1111122,1111122,1111122' 
TCOON,ioos:station:TCOON:013:1,2015-05-03T17:18:00Z,27.4847,-97.3181,0.0,7.0,119.0,9.5,'1111122,1111122,1111122' 
TCOON,ioos:station:TCOON:013:1,2015-05-03T18:18:00Z,27.4847,-97.3181,0.0,6.4,115.0,8.2,'1111122,1111122,1111122' 
TCOON,ioos:station:TCOON:013:1,2015-05-03T19:18:00Z,27.4847,-97.3181,0.0,7.3,108.0,9.3,'1111122,1111122,1111122' 
TCOON,ioos:station:TCOON:013:1,2015-05-03T20:18:00Z,27.4847,-97.3181,0.0,7.7,112.0,9.6,'1111122,1111122,1111122' 
TCOON,ioos:station:TCOON:013:1,2015-05-03T21:18:00Z,27.4847,-97.3181,0.0,8.0,113.0,10.0,'1111122,1111122,1111122' 
TCOON,ioos:station:TCOON:013:1,2015-05-03T22:18:00Z,27.4847,-97.3181,0.0,8.4,108.0,9.9,'1111122,1111122,1111122' 
TCOON,ioos:station:TCOON:013:1,2015-05-03T23:18:00Z,27.4847,-97.3181,0.0,7.8,107.0,9.4,'1111122,1111122,1111122' 
TCOON,ioos:station:TCOON:013:1,2015-05-04T00:18:00Z,27.4847,-97.3181,0.0,7.4,116.0,8.9,'1111122,1111122,1111122' 
TCOON,ioos:station:TCOON:013:1,2015-05-04T01:12:00Z,27.4847,-97.3181,0.0,7.2,115.0,10.4,'1111122,1111122,1111122' 
TCOON,ioos:station:TCOON:013:1,2015-05-04T02:18:00Z,27.4847,-97.3181,0.0,7.2,119.0,9.2,'1111122,1111122,1111122' 
TCOON,ioos:station:TCOON:013:1,2015-05-04T03:18:00Z,27.4847,-97.3181,0.0,6.5,119.0,8.2,'1111122,1111122,1111122' 
TCOON,ioos:station:TCOON:013:1,2015-05-04T04:12:00Z,27.4847,-97.3181,0.0,6.9,126.0,9.0,'1111122,1111122,1111122' 
TCOON,ioos:station:TCOON:013:1,2015-05-04T05:18:00Z,27.4847,-97.3181,0.0,6.8,127.0,8.4,'1111122,1111122,1111122' 
TCOON,ioos:station:TCOON:013:1,2015-05-04T06:18:00Z,27.4847,-97.3181,0.0,6.3,126.0,9.0,'1111122,1111122,1111122' 
TCOON,ioos:station:TCOON:013:1,2015-05-04T07:18:00Z,27.4847,-97.3181,0.0,7.2,127.0,8.4,'1111122,1111122,1111122' 
TCOON,ioos:station:TCOON:013:1,2015-05-04T08:18:00Z,27.4847,-97.3181,0.0,6.4,120.0,7.7,'1111122,1111122,1111122' 
TCOON,ioos:station:TCOON:013:1,2015-05-04T09:12:00Z,27.4847,-97.3181,0.0,5.9,121.0,7.0,'1111122,1111122,1111122' 
TCOON,ioos:station:TCOON:013:1,2015-05-04T10:18:00Z,27.4847,-97.3181,0.0,6.5,128.0,8.4,'1111122,1111122,1111122' 
TCOON,ioos:station:TCOON:013:1,2015-05-04T11:12:00Z,27.4847,-97.3181,0.0,6.4,125.0,9.0,'1111122,1111122,1111122' 
TCOON,ioos:station:TCOON:013:1,2015-05-04T12:12:00Z,27.4847,-97.3181,0.0,6.6,122.0,8.0,'1111122,1111122,1111122' 
TCOON,ioos:station:TCOON:013:1,2015-05-04T13:12:00Z,27.4847,-97.3181,0.0,6.3,116.0,8.2,'1111122,1111122,1111122' 
TCOON,ioos:station:TCOON:013:1,2015-05-04T14:12:00Z,27.4847,-97.3181,0.0,7.3,110.0,9.0,'1111122,1111122,1111122' 
TCOON,ioos:station:TCOON:013:1,2015-05-04T15:18:00Z,27.4847,-97.3181,0.0,8.8,112.0,10.4,'1111122,1111122,1111122' 
TCOON,ioos:station:TCOON:013:1,2015-05-04T16:18:00Z,27.4847,-97.3181,0.0,7.7,107.0,9.8,'1111122,1111122,1111122' 
TCOON,ioos:station:TCOON:013:1,2015-05-04T17:18:00Z,27.4847,-97.3181,0.0,8.4,100.0,10.2,'1111122,1111122,1111122' 
TCOON,ioos:station:TCOON:013:1,2015-05-04T18:18:00Z,27.4847,-97.3181,0.0,7.4,104.0,10.0,'1111122,1111122,1111122' 
TCOON,ioos:station:TCOON:013:1,2015-05-04T19:18:00Z,27.4847,-97.3181,0.0,7.2,109.0,9.6,'1111122,1111122,1111122' 
TCOON,ioos:station:TCOON:013:1,2015-05-04T20:18:00Z,27.4847,-97.3181,0.0,7.2,93.0,9.7,'1111122,1111122,1111122' 
TCOON,ioos:station:TCOON:013:1,2015-05-04T21:18:00Z,27.4847,-97.3181,0.0,7.8,98.0,9.4,'1111122,1111122,1111122' 
TCOON,ioos:station:TCOON:013:1,2015-05-04T22:18:00Z,27.4847,-97.3181,0.0,6.6,103.0,8.9,'1111122,1111122,1111122' 
TCOON,ioos:station:TCOON:013:1,2015-05-04T23:18:00Z,27.4847,-97.3181,0.0,8.3,99.0,10.3,'1111122,1111122,1111122' 
TCOON,ioos:station:TCOON:013:1,2015-05-05T00:12:00Z,27.4847,-97.3181,0.0,7.3,105.0,9.6,'1111122,1111122,1111122' 
TCOON,ioos:station:TCOON:013:1,2015-05-05T01:12:00Z,27.4847,-97.3181,0.0,7.9,103.0,9.7,'1111122,1111122,1111122' 
TCOON,ioos:station:TCOON:013:1,2015-05-05T02:18:00Z,27.4847,-97.3181,0.0,6.9,104.0,10.2,'1111122,1111122,1111122' 
TCOON,ioos:station:TCOON:013:1,2015-05-05T03:18:00Z,27.4847,-97.3181,0.0,8.3,103.0,10.2,'1111122,1111122,1111122' 
TCOON,ioos:station:TCOON:013:1,2015-05-05T04:18:00Z,27.4847,-97.3181,0.0,7.5,105.0,9.0,'1111122,1111122,1111122' 
TCOON,ioos:station:TCOON:013:1,2015-05-05T05:18:00Z,27.4847,-97.3181,0.0,6.2,116.0,7.7,'1111122,1111122,1111122' 
TCOON,ioos:station:TCOON:013:1,2015-05-05T06:18:00Z,27.4847,-97.3181,0.0,6.4,117.0,8.5,'1111122,1111122,1111122' 
TCOON,ioos:station:TCOON:013:1,2015-05-05T07:12:00Z,27.4847,-97.3181,0.0,6.5,124.0,7.8,'1111122,1111122,1111122' 
TCOON,ioos:station:TCOON:013:1,2015-05-05T08:18:00Z,27.4847,-97.3181,0.0,6.9,122.0,8.7,'1111122,1111122,1111122' 
TCOON,ioos:station:TCOON:013:1,2015-05-05T09:12:00Z,27.4847,-97.3181,0.0,6.8,126.0,9.4,'1111122,1111122,1111122' 
TCOON,ioos:station:TCOON:013:1,2015-05-05T10:18:00Z,27.4847,-97.3181,0.0,7.0,124.0,9.5,'1111122,1111122,1111122' 
TCOON,ioos:station:TCOON:013:1,2015-05-05T11:12:00Z,27.4847,-97.3181,0.0,8.0,123.0,9.1,'1111122,1111122,1111122' 
TCOON,ioos:station:TCOON:013:1,2015-05-05T12:18:00Z,27.4847,-97.3181,0.0,7.6,120.0,9.7,'1111122,1111122,1111122' 
TCOON,ioos:station:TCOON:013:1,2015-05-05T13:18:00Z,27.4847,-97.3181,0.0,7.0,120.0,9.2,'1111122,1111122,1111122' 
TCOON,ioos:station:TCOON:013:1,2015-05-05T14:12:00Z,27.4847,-97.3181,0.0,7.8,123.0,9.5,'1111122,1111122,1111122' 
TCOON,ioos:station:TCOON:013:1,2015-05-05T15:18:00Z,27.4847,-97.3181,0.0,7.8,124.0,9.8,'1111122,1111122,1111122' 
TCOON,ioos:station:TCOON:013:1,2015-05-05T16:18:00Z,27.4847,-97.3181,0.0,7.4,121.0,9.4,'1111122,1111122,1111122' 
TCOON,ioos:station:TCOON:013:1,2015-05-05T17:18:00Z,27.4847,-97.3181,0.0,6.8,121.0,9.4,'1111122,1111122,1111122' 
TCOON,ioos:station:TCOON:013:1,2015-05-05T18:18:00Z,27.4847,-97.3181,0.0,8.1,118.0,10.6,'1111122,1111122,1111122' 
TCOON,ioos:station:TCOON:013:1,2015-05-05T19:18:00Z,27.4847,-97.3181,0.0,9.3,115.0,11.4,'1111122,1111122,1111122' 
TCOON,ioos:station:TCOON:013:1,2015-05-05T20:18:00Z,27.4847,-97.3181,0.0,8.9,117.0,11.2,'1111122,1111122,1111122' 
TCOON,ioos:station:TCOON:013:1,2015-05-05T21:18:00Z,27.4847,-97.3181,0.0,9.1,120.0,11.6,'1111122,1111122,1111122' 
TCOON,ioos:station:TCOON:013:1,2015-05-05T22:18:00Z,27.4847,-97.3181,0.0,7.5,120.0,10.7,'1111122,1111122,1111122' 
TCOON,ioos:station:TCOON:013:1,2015-05-05T23:18:00Z,27.4847,-97.3181,0.0,7.0,120.0,9.4,'1111122,1111122,1111122' 
TCOON,ioos:station:TCOON:013:1,2015-05-06T00:12:00Z,27.4847,-97.3181,0.0,7.2,117.0,9.3,'1111122,1111122,1111122' 
TCOON,ioos:station:TCOON:013:1,2015-05-06T01:18:00Z,27.4847,-97.3181,0.0,7.3,117.0,9.6,'1111122,1111122,1111122' 
TCOON,ioos:station:TCOON:013:1,2015-05-06T02:18:00Z,27.4847,-97.3181,0.0,7.5,126.0,9.7,'1111122,1111122,1111122' 
TCOON,ioos:station:TCOON:013:1,2015-05-06T03:12:00Z,27.4847,-97.3181,0.0,6.9,121.0,9.4,'1111122,1111122,1111122' 
TCOON,ioos:station:TCOON:013:1,2015-05-06T04:18:00Z,27.4847,-97.3181,0.0,7.1,128.0,8.3,'1111122,1111122,1111122' 
TCOON,ioos:station:TCOON:013:1,2015-05-06T05:18:00Z,27.4847,-97.3181,0.0,7.6,129.0,8.7,'1111122,1111122,1111122' 
TCOON,ioos:station:TCOON:013:1,2015-05-06T06:30:00Z,27.4847,-97.3181,0.0,8.0,127.0,9.5,'1111122,1111122,1111122' 
TCOON,ioos:station:TCOON:013:1,2015-05-06T07:18:00Z,27.4847,-97.3181,0.0,8.9,129.0,11.4,'1111122,1111122,1111122' 
TCOON,ioos:station:TCOON:013:1,2015-05-06T08:18:00Z,27.4847,-97.3181,0.0,7.4,124.0,9.5,'1111122,1111122,1111122' 
TCOON,ioos:station:TCOON:013:1,2015-05-06T09:12:00Z,27.4847,-97.3181,0.0,8.2,129.0,10.3,'1111122,1111122,1111122' 
TCOON,ioos:station:TCOON:013:1,2015-05-06T10:18:00Z,27.4847,-97.3181,0.0,6.2,126.0,8.7,'1111122,1111122,1111122' 
TCOON,ioos:station:TCOON:013:1,2015-05-06T11:18:00Z,27.4847,-97.3181,0.0,6.4,122.0,7.9,'1111122,1111122,1111122' 
TCOON,ioos:station:TCOON:013:1,2015-05-06T12:18:00Z,27.4847,-97.3181,0.0,6.1,129.0,7.5,'1111122,1111122,1111122' 
TCOON,ioos:station:TCOON:013:1,2015-05-06T13:18:00Z,27.4847,-97.3181,0.0,6.5,127.0,8.2,'1111122,1111122,1111122' 
TCOON,ioos:station:TCOON:013:1,2015-05-06T14:18:00Z,27.4847,-97.3181,0.0,7.5,133.0,9.4,'1111122,1111122,1111122' 
TCOON,ioos:station:TCOON:013:1,2015-05-06T15:12:00Z,27.4847,-97.3181,0.0,7.6,134.0,8.5,'1111122,1111122,1111122' 
TCOON,ioos:station:TCOON:013:1,2015-05-06T16:18:00Z,27.4847,-97.3181,0.0,6.6,139.0,8.7,'1111122,1111122,1111122' 
TCOON,ioos:station:TCOON:013:1,2015-05-06T17:18:00Z,27.4847,-97.3181,0.0,6.8,127.0,10.0,'1111122,1111122,1111122' 
TCOON,ioos:station:TCOON:013:1,2015-05-06T18:18:00Z,27.4847,-97.3181,0.0,7.4,126.0,9.3,'1111122,1111122,1111122' 
TCOON,ioos:station:TCOON:013:1,2015-05-06T19:18:00Z,27.4847,-97.3181,0.0,6.8,123.0,9.2,'1111122,1111122,1111122' 
TCOON,ioos:station:TCOON:013:1,2015-05-06T20:18:00Z,27.4847,-97.3181,0.0,7.4,121.0,9.3,'1111122,1111122,1111122' 
TCOON,ioos:station:TCOON:013:1,2015-05-06T21:18:00Z,27.4847,-97.3181,0.0,7.5,126.0,9.7,'1111122,1111122,1111122' 
TCOON,ioos:station:TCOON:013:1,2015-05-06T22:24:00Z,27.4847,-97.3181,0.0,7.2,110.0,9.3,'1111122,1111122,1111122' 
TCOON,ioos:station:TCOON:013:1,2015-05-06T23:18:00Z,27.4847,-97.3181,0.0,7.4,109.0,9.4,'1111122,1111122,1111122' 
TCOON,ioos:station:TCOON:013:1,2015-05-07T00:12:00Z,27.4847,-97.3181,0.0,6.3,112.0,7.7,'1111122,1111122,1111122' 
TCOON,ioos:station:TCOON:013:1,2015-05-07T01:18:00Z,27.4847,-97.3181,0.0,7.3,101.0,8.8,'1111122,1111122,1111122' 
TCOON,ioos:station:TCOON:013:1,2015-05-07T02:18:00Z,27.4847,-97.3181,0.0,6.1,111.0,9.6,'1111122,1111122,1111122' 
TCOON,ioos:station:TCOON:013:1,2015-05-07T03:12:00Z,27.4847,-97.3181,0.0,6.4,128.0,8.4,'1111122,1111122,1111122' 
TCOON,ioos:station:TCOON:013:1,2015-05-07T04:18:00Z,27.4847,-97.3181,0.0,6.5,122.0,8.7,'1111122,1111122,1111122' 
TCOON,ioos:station:TCOON:013:1,2015-05-07T05:12:00Z,27.4847,-97.3181,0.0,6.6,123.0,8.0,'1111122,1111122,1111122' 
TCOON,ioos:station:TCOON:013:1,2015-05-07T06:30:00Z,27.4847,-97.3181,0.0,6.4,124.0,7.2,'1111122,1111122,1111122' 
TCOON,ioos:station:TCOON:013:1,2015-05-07T07:12:00Z,27.4847,-97.3181,0.0,6.5,124.0,7.6,'1111122,1111122,1111122' 
TCOON,ioos:station:TCOON:013:1,2015-05-07T08:18:00Z,27.4847,-97.3181,0.0,7.3,129.0,9.3,'1111122,1111122,1111122' 
TCOON,ioos:station:TCOON:013:1,2015-05-07T09:18:00Z,27.4847,-97.3181,0.0,6.3,126.0,7.9,'1111122,1111122,1111122' 
TCOON,ioos:station:TCOON:013:1,2015-05-07T10:12:00Z,27.4847,-97.3181,0.0,6.8,131.0,8.6,'1111122,1111122,1111122' 
TCOON,ioos:station:TCOON:013:1,2015-05-07T11:18:00Z,27.4847,-97.3181,0.0,6.6,123.0,8.3,'1111122,1111122,1111122' 
TCOON,ioos:station:TCOON:013:1,2015-05-07T12:18:00Z,27.4847,-97.3181,0.0,7.3,120.0,8.9,'1111122,1111122,1111122' 
TCOON,ioos:station:TCOON:013:1,2015-05-07T13:12:00Z,27.4847,-97.3181,0.0,7.0,117.0,9.4,'1111122,1111122,1111122' 
TCOON,ioos:station:TCOON:013:1,2015-05-07T14:12:00Z,27.4847,-97.3181,0.0,7.5,121.0,8.6,'1111122,1111122,1111122' 
TCOON,ioos:station:TCOON:013:1,2015-05-07T15:18:00Z,27.4847,-97.3181,0.0,7.6,119.0,10.1,'1111122,1111122,1111122' 
TCOON,ioos:station:TCOON:013:1,2015-05-07T16:18:00Z,27.4847,-97.3181,0.0,8.3,122.0,10.7,'1111122,1111122,1111122' 
TCOON,ioos:station:TCOON:013:1,2015-05-07T17:18:00Z,27.4847,-97.3181,0.0,9.0,129.0,10.4,'1111122,1111122,1111122' 
TCOON,ioos:station:TCOON:013:1,2015-05-07T18:18:00Z,27.4847,-97.3181,0.0,8.4,134.0,10.2,'1111122,1111122,1111122' 
TCOON,ioos:station:TCOON:013:1,2015-05-07T19:18:00Z,27.4847,-97.3181,0.0,7.9,136.0,9.9,'1111122,1111122,1111122' 
TCOON,ioos:station:TCOON:013:1,2015-05-07T20:18:00Z,27.4847,-97.3181,0.0,7.7,124.0,9.6,'1111122,1111122,1111122' 
TCOON,ioos:station:TCOON:013:1,2015-05-07T21:18:00Z,27.4847,-97.3181,0.0,7.2,116.0,9.9,'1111122,1111122,1111122' 
TCOON,ioos:station:TCOON:013:1,2015-05-07T22:24:00Z,27.4847,-97.3181,0.0,6.7,120.0,9.6,'1111122,1111122,1111122' 
TCOON,ioos:station:TCOON:013:1,2015-05-07T23:12:00Z,27.4847,-97.3181,0.0,8.6,124.0,10.2,'1111122,1111122,1111122' 
TCOON,ioos:station:TCOON:013:1,2015-05-08T00:18:00Z,27.4847,-97.3181,0.0,7.9,118.0,9.5,'1111122,1111122,1111122' 
TCOON,ioos:station:TCOON:013:1,2015-05-08T01:18:00Z,27.4847,-97.3181,0.0,7.2,115.0,9.6,'1111122,1111122,1111122' 
TCOON,ioos:station:TCOON:013:1,2015-05-08T02:18:00Z,27.4847,-97.3181,0.0,6.9,120.0,8.2,'1111122,1111122,1111122' 
TCOON,ioos:station:TCOON:013:1,2015-05-08T03:18:00Z,27.4847,-97.3181,0.0,6.3,124.0,8.3,'1111122,1111122,1111122' 
TCOON,ioos:station:TCOON:013:1,2015-05-08T04:18:00Z,27.4847,-97.3181,0.0,7.2,137.0,9.1,'1111122,1111122,1111122' 
TCOON,ioos:station:TCOON:013:1,2015-05-08T05:18:00Z,27.4847,-97.3181,0.0,6.9,144.0,8.4,'1111122,1111122,1111122' 
TCOON,ioos:station:TCOON:013:1,2015-05-08T06:18:00Z,27.4847,-97.3181,0.0,7.8,145.0,9.6,'1111122,1111122,1111122' 
TCOON,ioos:station:TCOON:013:1,2015-05-08T07:12:00Z,27.4847,-97.3181,0.0,6.1,124.0,8.1,'1111122,1111122,1111122' 
TCOON,ioos:station:TCOON:013:1,2015-05-08T08:18:00Z,27.4847,-97.3181,0.0,5.8,119.0,7.4,'1111122,1111122,1111122' 
TCOON,ioos:station:TCOON:013:1,2015-05-08T09:18:00Z,27.4847,-97.3181,0.0,7.6,130.0,9.2,'1111122,1111122,1111122' 
TCOON,ioos:station:TCOON:013:1,2015-05-08T10:18:00Z,27.4847,-97.3181,0.0,6.5,128.0,8.5,'1111122,1111122,1111122' 
TCOON,ioos:station:TCOON:013:1,2015-05-08T11:18:00Z,27.4847,-97.3181,0.0,7.6,133.0,9.8,'1111122,1111122,1111122' 
TCOON,ioos:station:TCOON:013:1,2015-05-08T12:18:00Z,27.4847,-97.3181,0.0,8.0,134.0,9.9,'1111122,1111122,1111122' 
TCOON,ioos:station:TCOON:013:1,2015-05-08T13:18:00Z,27.4847,-97.3181,0.0,6.2,136.0,9.2,'1111122,1111122,1111122' 
TCOON,ioos:station:TCOON:013:1,2015-05-08T14:24:00Z,27.4847,-97.3181,0.0,8.4,133.0,10.0,'1111122,1111122,1111122' 
TCOON,ioos:station:TCOON:013:1,2015-05-08T15:18:00Z,27.4847,-97.3181,0.0,8.6,144.0,10.4,'1111122,1111122,1111122' 
TCOON,ioos:station:TCOON:013:1,2015-05-08T16:18:00Z,27.4847,-97.3181,0.0,8.2,148.0,11.5,'1111122,1111122,1111122' 
TCOON,ioos:station:TCOON:013:1,2015-05-08T17:18:00Z,27.4847,-97.3181,0.0,8.6,154.0,10.7,'1111122,1111122,1111122' 
TCOON,ioos:station:TCOON:013:1,2015-05-08T18:18:00Z,27.4847,-97.3181,0.0,8.9,145.0,10.2,'1111122,1111122,1111122' 
TCOON,ioos:station:TCOON:013:1,2015-05-08T19:18:00Z,27.4847,-97.3181,0.0,8.0,137.0,10.7,'1111122,1111122,1111122' 
TCOON,ioos:station:TCOON:013:1,2015-05-08T20:18:00Z,27.4847,-97.3181,0.0,6.9,127.0,8.9,'1111122,1111122,1111122' 
TCOON,ioos:station:TCOON:013:1,2015-05-08T21:12:00Z,27.4847,-97.3181,0.0,8.0,124.0,10.1,'1111122,1111122,1111122' 
TCOON,ioos:station:TCOON:013:1,2015-05-08T22:18:00Z,27.4847,-97.3181,0.0,7.1,118.0,10.7,'1111122,1111122,1111122' 
TCOON,ioos:station:TCOON:013:1,2015-05-08T23:18:00Z,27.4847,-97.3181,0.0,7.6,122.0,9.0,'1111122,1111122,1111122' 
TCOON,ioos:station:TCOON:013:1,2015-05-09T00:18:00Z,27.4847,-97.3181,0.0,6.7,122.0,8.3,'1111122,1111122,1111122' 
TCOON,ioos:station:TCOON:013:1,2015-05-09T01:12:00Z,27.4847,-97.3181,0.0,7.9,128.0,10.6,'1111122,1111122,1111122' 
TCOON,ioos:station:TCOON:013:1,2015-05-09T02:12:00Z,27.4847,-97.3181,0.0,7.5,129.0,9.3,'1111122,1111122,1111122' 
TCOON,ioos:station:TCOON:013:1,2015-05-09T03:12:00Z,27.4847,-97.3181,0.0,7.6,132.0,9.2,'1111122,1111122,1111122' 
TCOON,ioos:station:TCOON:013:1,2015-05-09T04:18:00Z,27.4847,-97.3181,0.0,7.9,137.0,10.9,'1111122,1111122,1111122' 
TCOON,ioos:station:TCOON:013:1,2015-05-09T05:12:00Z,27.4847,-97.3181,0.0,9.0,141.0,11.4,'1111122,1111122,1111122' 
TCOON,ioos:station:TCOON:013:1,2015-05-09T06:24:00Z,27.4847,-97.3181,0.0,7.1,131.0,9.3,'1111122,1111122,1111122' 
TCOON,ioos:station:TCOON:013:1,2015-05-09T07:12:00Z,27.4847,-97.3181,0.0,7.2,133.0,8.4,'1111122,1111122,1111122' 
TCOON,ioos:station:TCOON:013:1,2015-05-09T08:12:00Z,27.4847,-97.3181,0.0,6.7,152.0,8.0,'1111122,1111122,1111122' 
TCOON,ioos:station:TCOON:013:1,2015-05-09T09:12:00Z,27.4847,-97.3181,0.0,7.8,154.0,9.9,'1111122,1111122,1111122' 
TCOON,ioos:station:TCOON:013:1,2015-05-09T10:18:00Z,27.4847,-97.3181,0.0,7.7,146.0,8.7,'1111122,1111122,1111122' 
TCOON,ioos:station:TCOON:013:1,2015-05-09T11:18:00Z,27.4847,-97.3181,0.0,7.7,150.0,10.3,'1111122,1111122,1111122' 
TCOON,ioos:station:TCOON:013:1,2015-05-09T12:12:00Z,27.4847,-97.3181,0.0,8.3,146.0,10.5,'1111122,1111122,1111122' 
TCOON,ioos:station:TCOON:013:1,2015-05-09T13:12:00Z,27.4847,-97.3181,0.0,8.7,139.0,11.2,'1111122,1111122,1111122' 
TCOON,ioos:station:TCOON:013:1,2015-05-09T14:18:00Z,27.4847,-97.3181,0.0,10.0,140.0,12.3,'1111122,1111122,1111122' 
TCOON,ioos:station:TCOON:013:1,2015-05-09T15:18:00Z,27.4847,-97.3181,0.0,10.2,146.0,13.0,'1111122,1111122,1111122' 
TCOON,ioos:station:TCOON:013:1,2015-05-09T16:12:00Z,27.4847,-97.3181,0.0,8.9,146.0,13.1,'1111122,1111122,1111122' 
TCOON,ioos:station:TCOON:013:1,2015-05-09T17:12:00Z,27.4847,-97.3181,0.0,11.9,153.0,14.1,'1111122,1111122,1111122' 
TCOON,ioos:station:TCOON:013:1,2015-05-09T18:18:00Z,27.4847,-97.3181,0.0,11.1,147.0,13.2,'1111122,1111122,1111122' 